�������l�o���
Date,Time,MP-1(��Sv/h),MP-2(��Sv/h),MP-3(��Sv/h),MP-4(��Sv/h),MP-5(��Sv/h),MP-6(��Sv/h),MP-7(��Sv/h),MP-8(��Sv/h),����,����(m/s),���J
2017/02/11,00:00,1.024,1.720,1.123,1.973,1.365,0.548,1.008,0.937,���k��,4.8,��
2017/02/11,00:10,1.024,1.726,1.123,1.969,1.365,0.549,1.009,0.939,���k��,6.8,��
2017/02/11,00:20,1.025,1.723,1.125,1.974,1.365,0.549,1.008,0.938,���k��,7.9,��
2017/02/11,00:30,1.025,1.726,1.126,1.974,1.362,0.550,1.007,0.938,���k��,6.5,��
2017/02/11,00:40,1.022,1.725,1.125,1.974,1.364,0.551,1.008,0.939,���k��,5.3,��
2017/02/11,00:50,1.024,1.724,1.125,1.970,1.364,0.551,1.008,0.936,���k��,5.1,��
2017/02/11,01:00,1.022,1.724,1.125,1.974,1.363,0.548,1.010,0.938,�k��,5.8,��
2017/02/11,01:10,1.022,1.724,1.123,1.976,1.366,0.550,1.008,0.937,�k��,5.1,��
2017/02/11,01:20,1.022,1.721,1.123,1.974,1.366,0.548,1.008,0.940,�k�k��,5.2,��
2017/02/11,01:30,1.020,1.725,1.122,1.972,1.362,0.550,1.009,0.938,�k��,5.0,��
2017/02/11,01:40,1.019,1.724,1.123,1.973,1.361,0.549,1.008,0.938,�k��,3.9,��
2017/02/11,01:50,1.020,1.724,1.124,1.970,1.365,0.550,1.007,0.938,�k��,5.2,��
2017/02/11,02:00,1.020,1.724,1.122,1.974,1.361,0.549,1.010,0.938,�k�k��,4.8,��
2017/02/11,02:10,1.022,1.723,1.123,1.974,1.360,0.548,1.008,0.937,�k��,4.9,��
2017/02/11,02:20,1.022,1.721,1.124,1.972,1.361,0.548,1.010,0.938,�k��,5.3,��
2017/02/11,02:30,1.022,1.723,1.121,1.972,1.361,0.545,1.010,0.938,�k��,5.3,��
2017/02/11,02:40,1.022,1.722,1.121,1.974,1.364,0.548,1.008,0.937,�k��,5.0,��
2017/02/11,02:50,1.021,1.723,1.123,1.972,1.362,0.547,1.007,0.938,�k��,6.9,��
2017/02/11,03:00,1.019,1.725,1.126,1.971,1.362,0.546,1.009,0.938,�k��,5.3,��
2017/02/11,03:10,1.018,1.720,1.121,1.973,1.360,0.546,1.009,0.936,�k�k��,2.6,��
2017/02/11,03:20,1.020,1.721,1.123,1.974,1.361,0.546,1.009,0.938,�k�k��,3.1,��
2017/02/11,03:30,1.021,1.721,1.122,1.973,1.360,0.546,1.009,0.938,�k,2.9,��
2017/02/11,03:40,1.018,1.723,1.120,1.973,1.362,0.549,1.008,0.938,�k,4.1,��
2017/02/11,03:50,1.019,1.721,1.121,1.971,1.360,0.550,1.007,0.937,�k�k��,3.2,��
2017/02/11,04:00,1.019,1.722,1.121,1.970,1.360,0.550,1.008,0.937,�k��,2.5,��
2017/02/11,04:10,1.020,1.719,1.123,1.975,1.359,0.546,1.005,0.939,���k��,1.4,��
2017/02/11,04:20,1.020,1.719,1.122,1.973,1.359,0.548,1.008,0.939,���k��,2.6,��
2017/02/11,04:30,1.019,1.720,1.120,1.972,1.360,0.549,1.005,0.938,���k��,2.0,��
2017/02/11,04:40,1.019,1.718,1.121,1.974,1.359,0.549,1.007,0.937,���k��,1.5,��
2017/02/11,04:50,1.018,1.719,1.118,1.971,1.358,0.549,1.009,0.937,���k��,1.7,��
2017/02/11,05:00,1.018,1.719,1.119,1.973,1.357,0.549,1.006,0.938,���쐼,1.5,��
2017/02/11,05:10,1.017,1.717,1.122,1.972,1.357,0.550,1.008,0.938,��,3.2,��
2017/02/11,05:20,1.019,1.721,1.119,1.972,1.357,0.548,1.008,0.938,���k��,5.0,��
2017/02/11,05:30,1.017,1.720,1.121,1.974,1.359,0.548,1.008,0.937,��,3.8,��
2017/02/11,05:40,1.019,1.720,1.120,1.974,1.359,0.548,1.009,0.937,���k��,3.4,��
2017/02/11,05:50,1.017,1.719,1.122,1.973,1.360,0.548,1.007,0.937,�k��,2.3,��
2017/02/11,06:00,1.017,1.718,1.121,1.972,1.356,0.547,1.008,0.936,�k,2.6,��
2017/02/11,06:10,1.017,1.718,1.118,1.971,1.359,0.547,1.009,0.938,���k��,0.6,��
2017/02/11,06:20,1.017,1.716,1.120,1.973,1.358,0.547,1.008,0.938,�k�k��,0.6,��
2017/02/11,06:30,1.016,1.720,1.120,1.973,1.359,0.548,1.008,0.937,��,1.1,��
2017/02/11,06:40,1.016,1.717,1.119,1.973,1.356,0.549,1.007,0.939,���쐼,2.6,��
2017/02/11,06:50,1.019,1.717,1.120,1.971,1.356,0.548,1.006,0.937,���쐼,5.3,��
2017/02/11,07:00,1.017,1.718,1.120,1.972,1.358,0.547,1.007,0.937,���쐼,4.9,��
2017/02/11,07:10,1.019,1.719,1.117,1.971,1.358,0.548,1.009,0.938,���쐼,4.4,��
2017/02/11,07:20,1.016,1.720,1.121,1.973,1.356,0.549,1.009,0.937,���쐼,3.1,��
2017/02/11,07:30,1.017,1.719,1.120,1.974,1.357,0.550,1.009,0.936,�쐼,3.7,��
2017/02/11,07:40,1.019,1.720,1.121,1.972,1.357,0.546,1.007,0.938,���쐼,4.5,��
2017/02/11,07:50,1.019,1.721,1.122,1.974,1.357,0.550,1.009,0.937,���쐼,4.0,��
2017/02/11,08:00,1.020,1.720,1.122,1.975,1.359,0.547,1.008,0.938,���쐼,5.2,��
2017/02/11,08:10,1.019,1.718,1.121,1.976,1.357,0.549,1.007,0.939,���쐼,5.1,��
2017/02/11,08:20,1.022,1.719,1.121,1.978,1.356,0.549,1.009,0.938,���쐼,5.7,��
2017/02/11,08:30,1.020,1.720,1.122,1.974,1.360,0.548,1.010,0.939,���쐼,6.0,��
2017/02/11,08:40,1.021,1.722,1.123,1.976,1.356,0.550,1.010,0.937,���쐼,7.7,��
2017/02/11,08:50,1.021,1.724,1.124,1.975,1.359,0.549,1.010,0.939,���쐼,9.3,��
2017/02/11,09:00,1.024,1.667,1.124,1.975,1.361,0.548,1.010,0.939,���쐼,7.8,��
2017/02/11,09:10,1.023,1.673,1.123,1.979,1.360,0.548,1.010,0.941,��,7.8,��
2017/02/11,09:20,1.024,1.703,1.126,1.976,1.362,0.549,1.010,0.936,���쐼,9.2,��
2017/02/11,09:30,1.024,1.709,1.124,1.978,1.361,0.551,1.012,0.939,�쐼,7.8,��
2017/02/11,09:40,1.026,1.717,1.126,1.980,1.362,0.549,1.008,0.940,���쐼,7.6,��
2017/02/11,09:50,1.027,1.717,1.126,1.977,1.365,0.551,1.012,0.941,���쐼,7.8,��
2017/02/11,10:00,1.026,1.714,1.127,1.979,1.366,0.550,1.011,0.940,��,9.6,��
2017/02/11,10:10,1.028,1.714,1.130,1.977,1.366,0.550,1.010,0.939,���쐼,8.5,��
2017/02/11,10:20,1.027,1.717,1.126,1.980,1.369,0.552,1.010,0.942,��,9.5,��
2017/02/11,10:30,1.026,1.718,1.126,1.980,1.367,0.551,1.011,0.939,���쐼,10.2,��
2017/02/11,10:40,1.028,1.720,1.127,1.979,1.370,0.552,1.012,0.940,��,10.7,��
2017/02/11,10:50,1.027,1.722,1.127,1.979,1.372,0.552,1.007,0.940,���쐼,9.5,��
2017/02/11,11:00,1.028,1.721,1.130,1.981,1.372,0.551,1.010,0.939,��,13.1,��
2017/02/11,11:10,1.031,1.723,1.130,1.983,1.373,0.554,1.010,0.940,���쐼,11.9,��
2017/02/11,11:20,1.031,1.721,1.128,1.982,1.371,0.553,1.011,0.941,���쐼,10.4,��
2017/02/11,11:30,1.031,1.721,1.129,1.978,1.373,0.553,1.010,0.941,���쐼,10.2,��
2017/02/11,11:40,1.032,1.722,1.131,1.983,1.377,0.555,1.011,0.943,��,8.8,��
2017/02/11,11:50,1.032,1.723,1.131,1.983,1.379,0.556,1.011,0.940,��,12.2,��
2017/02/11,12:00,1.032,1.722,1.132,1.985,1.378,0.555,1.011,0.943,��,8.3,��
2017/02/11,12:10,1.031,1.726,1.129,1.984,1.378,0.555,1.011,0.942,��,6.1,��
2017/02/11,12:20,1.032,1.727,1.132,1.985,1.380,0.555,1.011,0.942,���k��,8.7,��
2017/02/11,12:30,1.035,1.725,1.135,1.985,1.376,0.554,1.013,0.942,���k��,6.0,��
2017/02/11,12:40,1.037,1.729,1.134,1.987,1.379,0.556,1.011,0.942,��,9.6,��
2017/02/11,12:50,1.036,1.728,1.133,1.987,1.379,0.555,1.011,0.943,��,8.2,��
2017/02/11,13:00,1.038,1.728,1.135,1.988,1.378,0.555,1.011,0.942,��,4.5,��
2017/02/11,13:10,1.039,1.726,1.135,1.987,1.380,0.555,1.011,0.943,��,7.1,��
2017/02/11,13:20,1.038,1.731,1.137,1.990,1.382,0.555,1.012,0.942,��,9.4,��
2017/02/11,13:30,1.039,1.728,1.137,1.991,1.382,0.555,1.011,0.943,��,10.5,��
2017/02/11,13:40,1.038,1.731,1.136,1.990,1.381,0.556,1.013,0.944,��,8.9,��
2017/02/11,13:50,1.038,1.733,1.136,1.990,1.380,0.558,1.012,0.942,��,8.2,��
2017/02/11,14:00,1.038,1.734,1.137,1.989,1.383,0.555,1.013,0.942,��,10.4,��
2017/02/11,14:10,1.040,1.733,1.141,1.990,1.383,0.556,1.016,0.941,��,11.9,��
2017/02/11,14:20,1.040,1.728,1.139,1.990,1.384,0.556,1.014,0.941,��,15.5,��
2017/02/11,14:30,1.041,1.732,1.139,1.992,1.385,0.555,1.015,0.941,��,14.9,��
2017/02/11,14:40,1.038,1.735,1.142,1.994,1.387,0.556,1.014,0.940,��,13.5,��
2017/02/11,14:50,1.039,1.732,1.141,1.992,1.386,0.557,1.015,0.942,���쐼,12.0,��
2017/02/11,15:00,1.042,1.736,1.139,1.993,1.387,0.556,1.015,0.942,��,12.7,��
2017/02/11,15:10,1.041,1.737,1.139,1.994,1.385,0.555,1.015,0.943,��,13.8,��
2017/02/11,15:20,1.040,1.734,1.141,1.992,1.388,0.556,1.016,0.942,��,13.1,��
2017/02/11,15:30,1.042,1.736,1.137,1.991,1.389,0.555,1.015,0.943,��,11.7,��
2017/02/11,15:40,1.041,1.739,1.142,1.994,1.385,0.555,1.017,0.942,��,13.2,��
2017/02/11,15:50,1.039,1.737,1.140,1.995,1.383,0.556,1.017,0.944,��,12.8,��
2017/02/11,16:00,1.042,1.737,1.142,1.990,1.385,0.556,1.016,0.942,���쐼,13.1,��
2017/02/11,16:10,1.040,1.735,1.143,1.994,1.385,0.555,1.015,0.942,���쐼,11.8,��
2017/02/11,16:20,1.040,1.737,1.142,1.993,1.384,0.556,1.018,0.944,���쐼,9.9,��
2017/02/11,16:30,1.039,1.738,1.140,1.995,1.386,0.557,1.017,0.942,��,10.5,��
2017/02/11,16:40,1.038,1.735,1.140,1.998,1.388,0.556,1.016,0.944,���쐼,6.9,��
2017/02/11,16:50,1.040,1.736,1.139,1.996,1.390,0.557,1.016,0.944,���쐼,7.8,��
2017/02/11,17:00,1.040,1.736,1.139,1.996,1.385,0.556,1.018,0.942,��,8.5,��
2017/02/11,17:10,1.041,1.734,1.139,1.997,1.386,0.556,1.015,0.943,���쐼,6.1,��
2017/02/11,17:20,1.041,1.739,1.141,1.996,1.388,0.556,1.015,0.941,�쐼,8.0,��
2017/02/11,17:30,1.040,1.738,1.140,1.995,1.389,0.555,1.016,0.942,���쐼,6.5,��
2017/02/11,17:40,1.039,1.737,1.140,1.997,1.388,0.555,1.016,0.941,�쐼,7.2,��
2017/02/11,17:50,1.039,1.740,1.140,1.995,1.388,0.555,1.016,0.943,���쐼,7.8,��
2017/02/11,18:00,1.039,1.739,1.142,1.997,1.387,0.557,1.015,0.945,��,7.4,��
2017/02/11,18:10,1.039,1.740,1.138,1.994,1.385,0.555,1.015,0.943,���쐼,7.6,��
2017/02/11,18:20,1.038,1.740,1.138,1.996,1.387,0.554,1.017,0.943,���쐼,5.9,��
2017/02/11,18:30,1.038,1.737,1.138,1.996,1.390,0.555,1.014,0.943,��,6.9,��
2017/02/11,18:40,1.036,1.738,1.139,1.997,1.387,0.556,1.013,0.944,���쐼,7.9,��
2017/02/11,18:50,1.035,1.740,1.138,1.996,1.386,0.555,1.016,0.942,���쐼,6.8,��
2017/02/11,19:00,1.039,1.738,1.139,1.995,1.390,0.554,1.015,0.944,�쐼,8.4,��
2017/02/11,19:10,1.037,1.737,1.141,1.996,1.389,0.555,1.016,0.943,���쐼,6.6,��
2017/02/11,19:20,1.037,1.739,1.139,1.998,1.387,0.555,1.016,0.943,�쐼,6.2,��
2017/02/11,19:30,1.039,1.741,1.141,1.993,1.389,0.556,1.015,0.943,�쐼,7.1,��
2017/02/11,19:40,1.036,1.738,1.139,1.996,1.385,0.557,1.015,0.943,��쐼,4.0,��
2017/02/11,19:50,1.038,1.739,1.142,1.995,1.388,0.556,1.016,0.943,�쐼,3.5,��
2017/02/11,20:00,1.041,1.739,1.141,1.996,1.389,0.556,1.016,0.942,��,4.2,��
2017/02/11,20:10,1.040,1.739,1.141,1.998,1.388,0.557,1.014,0.942,���k��,4.1,��
2017/02/11,20:20,1.040,1.737,1.141,1.994,1.391,0.557,1.013,0.943,��,1.5,��
2017/02/11,20:30,1.039,1.739,1.141,1.992,1.388,0.557,1.016,0.943,�k��,2.8,��
2017/02/11,20:40,1.038,1.737,1.141,1.996,1.389,0.556,1.015,0.942,���k��,1.7,��
2017/02/11,20:50,1.037,1.740,1.139,1.996,1.386,0.556,1.015,0.943,��,0.9,��
2017/02/11,21:00,1.037,1.738,1.139,1.996,1.389,0.554,1.014,0.942,���쐼,3.3,��
2017/02/11,21:10,1.037,1.737,1.139,1.998,1.388,0.555,1.012,0.943,��,4.3,��
2017/02/11,21:20,1.039,1.741,1.141,1.996,1.390,0.555,1.014,0.942,���쐼,6.2,��
2017/02/11,21:30,1.038,1.738,1.141,1.994,1.391,0.555,1.015,0.942,��,7.0,��
2017/02/11,21:40,1.039,1.741,1.139,1.996,1.390,0.555,1.014,0.942,��,7.7,��
2017/02/11,21:50,1.038,1.739,1.140,1.996,1.390,0.555,1.014,0.942,��,6.0,��
2017/02/11,22:00,1.038,1.735,1.142,1.996,1.390,0.556,1.015,0.944,��,11.3,��
2017/02/11,22:10,1.037,1.739,1.140,1.994,1.390,0.554,1.015,0.942,��,11.6,��
2017/02/11,22:20,1.037,1.738,1.139,1.997,1.390,0.554,1.014,0.941,��,10.7,��
2017/02/11,22:30,1.038,1.737,1.138,1.995,1.391,0.556,1.014,0.944,���k��,8.8,��
2017/02/11,22:40,1.038,1.735,1.136,1.997,1.389,0.553,1.015,0.941,��,8.1,��
2017/02/11,22:50,1.037,1.740,1.137,1.997,1.388,0.554,1.016,0.941,��,8.9,��
2017/02/11,23:00,1.038,1.736,1.137,1.996,1.388,0.553,1.015,0.943,���k��,6.3,��
2017/02/11,23:10,1.037,1.738,1.137,1.999,1.389,0.553,1.016,0.942,���k��,8.5,��
2017/02/11,23:20,1.037,1.734,1.136,1.999,1.384,0.554,1.015,0.944,���k��,8.3,��
2017/02/11,23:30,1.036,1.736,1.138,1.995,1.388,0.554,1.015,0.943,���k��,8.7,��
2017/02/11,23:40,1.036,1.736,1.137,1.996,1.389,0.555,1.014,0.943,���k��,8.3,��
2017/02/11,23:50,1.038,1.737,1.138,1.997,1.385,0.555,1.015,0.941,���k��,7.5,��
